Погода в Угодичах

Россия / Ярославская область     57°09′40″N   39°30′24″E
темп.,
°C
ветер,
м/с
пор.,
м/с
влажн.,
%
обл.,
%
осадки,
мм/ч
давл.,
гПа
погр.,
м
11 апреля, вс
вс1100:00+2ю514735 0.0 1024253
03:00+1ююз411815 0.0 1024195
06:000юз38875 0.0 1025134
09:00+5зюз259113 0.0 1028211
12:00+9юз247652 0.0 1029657
15:00+11юз2467100 0.1 1029944
18:00+9вюв2281100 0.0 103019
21:00+8юв2287100 0.0 103225
12 апреля, пн
пн1200:00+6юв3485100 0.0 103373
03:00+6юв338523 0.0 103439
06:00+4юв35895 0.0 103678
09:00+9юв47745 0.0 1036291
12:00+12юв5761100 0.0 1035748
15:00+14вюв6856100 0.0 1034996
18:00+12вюв61069100 0.0 1032725
21:00+9юв51279100 0.0 1032560
13 апреля, вт
вт1300:00+7юв41085100 0.0 1031381
03:00+5юв3996100 0.0 1030217
06:00+5юв3898100 0.0 1028198
09:00+10ююв5977100 0.0 1027309
12:00+16ю61053100 0.0 1026697
15:00+18ю6947100 0.0 10251320
18:00+15ю4855100 0.0 1024152
21:00+11ю4967100 0.0 1024132
14 апреля, ср
ср1400:00+9ю487192 0.0 1024107
03:00+8ю4774100 0.0 1024103
06:00+8ююв38775 0.0 1023122
09:00+13ю51057100 0.0 1022358
12:00+17ю6943100 0.0 1022767
15:00+19ю683819 0.0 10201347
18:00+16ю3749100 0.0 1019146
21:00+12ю4662100 0.0 101993
15 апреля, чт
чт1500:00+10ю3768100 0.0 1019101
03:00+9ююз3372100 0.0 101935
06:00+8ююв2273100 0.0 101810
09:00+12ююв2260100 0.0 1018205
12:00+15ююв2349100 0.0 1017615
15:00+16ююв1145100 0.0 10161117
18:00+15ссв3557100 0.0 1016126
21:00+9ссв6108199 0.2 1018404